GFSNW_700_rhum_144.txt.gz
RH
6 5 10 24 36 26 12 17 19 23 37 36 30 30 33 36 42 38 38 42 40 38 38 37 34 32 28 27 24 19 18 19 23 21 22 21 21 23 28 27 30 36 37 18
7 6 5 9 22 34 22 13 18 19 24 36 37 37 38 36 36 39 36 39 40 36 35 33 32 27 26 24 23 23 22 23 26 29 32 28 28 27 32 27 28 33 32 17
10 7 5 5 8 19 30 27 15 18 19 19 23 26 35 39 32 32 33 36 35 34 34 32 31 31 28 26 22 24 25 26 23 22 26 26 26 24 26 37 40 30 28 20
12 9 6 5 5 8 17 30 32 28 14 18 22 23 20 20 19 24 19 31 29 31 29 28 26 20 23 22 20 20 20 20 20 22 23 24 24 24 19 20 18 29 14 14
10 14 8 6 5 5 8 19 31 36 40 26 14 16 21 22 19 22 21 21 22 20 20 20 21 22 19 22 22 21 27 26 22 18 17 17 14 12 12 14 17 19 18 17
22 12 15 8 6 5 5 8 15 24 28 38 37 38 29 16 14 16 18 21 21 22 23 23 22 21 21 21 23 27 27 25 25 25 22 25 22 8 9 10 11 12 18 8
30 20 14 15 9 6 6 5 6 11 20 26 30 40 43 44 30 23 20 16 17 17 18 18 20 20 19 19 17 21 27 30 33 30 27 37 12 12 15 21 21 19 18 20
30 31 20 18 16 9 6 6 6 6 9 16 22 26 31 39 47 50 45 42 44 46 49 46 48 45 43 39 35 27 28 34 36 39 48 24 20 18 25 25 20 31 31 31
24 32 32 20 21 18 11 7 6 6 7 10 15 21 22 26 33 42 46 47 47 48 50 50 51 40 42 44 43 40 37 43 64 58 56 51 26 35 39 36 32 34 35 35
22 27 34 34 24 24 20 13 8 7 7 8 10 12 19 21 27 28 42 45 45 47 48 56 55 48 47 45 46 45 48 54 67 81 62 35 29 29 30 41 38 42 45 45
26 26 30 35 36 28 28 23 16 10 8 8 10 12 15 18 22 24 33 46 42 46 49 50 49 53 55 52 49 47 46 42 46 79 88 56 38 38 41 43 45 47 51 51
78 45 31 30 38 39 34 32 27 18 12 10 10 12 15 19 22 32 42 44 45 51 49 49 52 55 57 49 49 44 45 40 39 40 38 41 44 44 48 51 51 55 60 59
88 58 40 38 34 42 43 40 38 31 21 15 12 11 12 14 16 23 30 38 52 56 61 61 62 60 60 58 54 50 45 49 51 50 42 46 52 55 56 57 58 61 67 68
86 93 54 36 42 43 45 47 46 40 32 24 18 15 16 18 27 33 36 41 51 52 59 64 63 60 60 62 63 58 50 53 55 55 44 52 54 58 65 67 68 65 68 74
87 87 90 60 44 51 54 54 53 49 38 28 22 26 28 24 23 26 32 39 49 52 58 59 59 58 64 70 72 52 43 46 54 50 46 57 53 58 62 66 70 74 81 85
90 90 90 65 49 52 58 60 57 53 42 37 30 31 24 19 17 19 34 46 47 52 55 57 60 55 63 81 76 41 40 43 48 49 51 51 53 54 56 64 78 84 90 95
93 91 90 63 52 60 66 69 67 63 55 48 48 41 29 23 19 19 28 39 46 54 57 55 53 52 58 60 56 44 46 45 48 52 56 56 58 70 76 84 88 91 99 98
91 98 92 87 80 70 73 78 92 82 69 63 63 60 51 43 44 48 46 50 57 60 66 63 60 67 69 69 56 58 50 45 46 46 50 55 60 65 79 90 98 100 97 90
99 100 98 98 98 98 85 88 89 92 86 85 76 71 65 55 52 46 48 57 59 60 61 61 67 71 71 65 68 64 61 53 53 53 56 57 57 65 74 91 100 100 90 67
100 98 100 98 97 99 98 99 99 100 94 100 91 87 82 72 64 67 68 69 70 73 74 75 79 70 62 65 74 68 56 43 40 43 51 65 70 72 90 98 97 84 66 59
98 98 98 97 99 99 98 97 96 96 97 83 71 67 75 78 79 80 86 90 91 93 87 92 79 68 60 52 53 47 38 33 35 42 53 75 79 80 95 92 78 70 66 61
96 78 99 98 98 97 96 97 97 87 84 79 75 62 70 82 84 97 97 97 95 90 93 88 71 58 51 46 50 52 43 32 34 45 58 73 83 85 87 85 81 79 79 80
95 100 98 98 96 96 96 92 86 77 69 67 57 58 70 76 91 100 95 95 95 95 92 75 65 59 52 43 40 41 40 42 50 54 62 74 82 86 92 92 89 80 69 61
100 100 97 96 95 84 79 67 62 62 63 60 61 68 73 75 86 94 95 97 95 86 99 68 61 54 49 50 50 51 52 59 61 70 75 75 70 65 61 58 57 55 52 39
98 96 94 89 77 68 64 69 72 68 67 65 68 72 79 82 90 90 95 95 93 84 69 61 62 69 71 63 54 51 52 55 57 59 58 56 55 55 58 54 43 28 16 13
97 95 94 83 88 82 79 70 67 70 76 74 78 80 83 87 91 93 86 97 83 74 66 68 75 82 81 74 69 66 67 67 60 50 43 38 29 20 16 13 14 14 18 21
96 96 88 77 84 85 76 77 82 87 81 82 87 89 83 93 90 94 93 92 81 80 85 92 95 94 87 74 61 55 54 49 45 36 24 16 14 16 16 15 18 26 25 24

GFSNW_700_rhum_147.txt.gz
RH
9 6 6 13 29 27 14 17 21 34 32 29 29 29 34 37 39 35 36 37 30 34 34 33 32 31 26 29 24 20 20 18 18 18 18 16 15 19 24 29 30 38 36 20
13 9 6 6 15 29 28 15 16 20 25 31 29 30 31 36 35 38 38 38 35 32 32 30 29 27 25 22 24 20 19 19 23 29 28 24 24 19 19 26 28 29 29 18
11 14 8 6 6 15 28 28 16 18 17 20 34 36 37 35 33 32 34 38 38 35 31 27 29 25 23 23 23 22 21 22 21 20 23 26 27 25 27 35 36 28 24 18
22 11 14 8 6 6 14 24 31 30 15 18 20 23 17 21 21 29 23 32 32 33 34 33 30 24 26 26 23 24 23 23 22 22 22 23 23 23 25 22 22 34 19 16
25 21 12 14 8 6 8 15 27 31 37 28 15 17 20 23 20 22 19 22 23 20 24 20 20 20 19 21 23 22 23 22 22 20 18 19 17 14 14 14 15 17 13 6
19 26 21 14 14 8 6 8 14 21 26 31 37 39 31 16 14 15 18 22 22 24 24 23 22 21 20 19 20 23 23 21 22 23 18 20 19 7 7 8 8 9 12 7
28 20 28 21 15 15 9 6 7 10 16 22 26 33 39 43 33 24 22 15 16 17 16 18 20 20 20 20 20 21 23 27 31 30 27 38 13 12 11 11 11 12 14 17
68 28 22 29 22 17 16 10 7 7 8 12 18 22 27 30 39 46 46 39 38 40 43 45 48 46 44 41 42 40 36 38 39 33 46 27 27 25 24 23 19 21 21 32
76 61 22 25 31 24 19 18 11 8 7 8 10 13 21 21 25 32 42 45 46 46 48 49 48 45 40 43 43 42 42 45 59 56 53 50 27 28 34 37 32 35 37 37
68 68 46 21 25 32 27 23 21 14 9 8 8 9 12 14 17 25 29 39 45 47 48 50 50 47 44 43 44 44 47 51 62 74 70 43 35 33 32 37 37 40 41 45
68 70 55 28 24 26 32 31 27 24 18 12 9 9 10 13 15 18 23 29 34 45 48 49 47 50 50 48 45 44 46 45 48 71 90 57 38 41 40 41 44 47 50 51
81 86 70 35 29 29 29 33 34 32 29 22 15 12 12 12 14 18 19 25 34 42 44 47 50 52 58 53 50 44 47 42 42 41 36 38 40 41 45 50 54 58 59 60
85 90 92 85 58 38 38 37 37 39 38 33 29 22 17 14 13 17 23 24 32 36 49 58 63 63 62 59 54 52 48 50 52 51 40 45 49 51 54 58 62 64 66 68
90 91 90 94 83 44 41 46 47 46 45 41 35 32 28 22 18 20 24 25 29 38 48 64 68 62 63 59 59 55 49 51 54 58 42 50 48 56 60 63 66 69 72 75
92 87 84 83 94 87 45 42 47 53 50 46 40 36 31 27 24 21 22 26 32 40 56 58 60 62 60 66 70 54 38 45 52 49 47 49 46 47 53 64 71 72 75 78
90 99 95 95 88 94 70 54 54 52 56 57 53 48 43 39 34 28 21 23 41 56 58 59 61 53 61 76 74 42 42 49 57 54 50 49 50 50 54 59 71 77 88 91
100 100 99 100 94 93 79 65 65 64 63 64 64 58 52 47 42 35 27 25 33 52 62 63 59 56 66 71 65 47 52 46 48 58 59 56 51 52 57 69 74 77 88 96
88 98 98 98 98 90 78 68 63 69 75 82 83 72 68 56 46 44 44 43 52 57 58 57 56 62 65 69 50 53 57 65 69 62 62 55 56 52 58 67 80 91 97 100
98 100 97 98 97 93 96 99 87 90 98 96 88 86 79 67 61 58 57 57 60 59 57 60 66 69 66 51 53 62 66 69 76 72 74 77 85 73 65 68 83 100 100 100
89 98 98 96 98 100 100 99 96 97 98 98 98 98 84 72 74 77 73 70 71 69 72 72 70 57 46 54 56 56 59 65 70 66 55 53 53 63 73 78 88 98 99 99
97 97 97 96 97 100 98 98 97 96 100 95 70 77 73 77 87 92 86 81 82 86 83 88 80 54 50 53 57 54 58 61 56 57 46 41 51 78 90 91 98 100 98 89
55 98 97 98 98 98 97 95 92 92 86 69 64 58 66 79 82 98 98 96 94 94 92 90 69 53 55 57 53 52 56 57 54 52 47 50 68 84 90 92 92 90 84 83
72 99 98 97 96 97 95 92 84 86 63 52 55 65 66 73 85 100 97 95 97 93 93 80 62 56 54 58 59 51 48 45 46 52 66 87 94 92 90 81 80 69 50 42
79 98 98 96 95 86 74 62 59 54 50 55 64 62 66 73 87 99 90 97 95 95 96 67 58 55 58 56 53 52 52 56 67 73 74 76 71 63 57 55 47 36 34 39
98 98 96 94 84 72 60 61 66 65 61 65 67 70 74 75 88 84 91 93 91 80 61 58 58 56 58 63 63 59 57 60 60 58 57 60 60 53 43 37 32 23 16 14
98 96 94 87 90 71 67 61 67 68 69 75 79 83 86 86 84 88 84 94 77 61 61 62 61 61 65 73 70 69 68 68 68 64 50 42 40 35 26 18 14 14 16 16
98 95 94 90 73 71 74 66 63 65 74 77 80 89 84 94 89 90 86 74 67 69 71 74 74 77 83 88 88 83 64 52 49 50 46 35 23 18 15 15 17 20 21 24

GFSNW_700_rhum_150.txt.gz
RH
10 12 6 6 14 31 18 16 20 31 28 29 30 33 35 35 36 37 39 34 36 35 32 30 30 28 26 26 24 22 20 16 18 21 20 19 18 23 21 22 26 34 35 18
24 10 11 6 6 17 30 18 16 20 27 28 28 31 36 37 35 38 35 34 32 33 34 32 32 29 26 22 26 22 18 18 19 24 22 19 18 15 15 22 28 28 33 15
25 25 11 10 6 6 17 28 22 18 18 27 34 32 33 32 34 34 35 36 35 32 32 29 31 28 25 22 23 22 20 19 17 16 20 22 23 21 22 25 32 25 18 13
14 24 26 12 10 5 7 17 29 31 18 18 20 19 21 21 21 28 27 36 35 34 32 30 30 25 25 27 26 26 24 24 23 23 24 24 24 24 26 26 22 27 18 16
52 17 24 25 14 10 6 7 18 28 34 32 18 18 20 20 21 21 17 21 26 21 29 26 21 23 21 18 20 22 22 21 18 16 15 16 15 14 14 15 16 18 13 10
70 66 19 24 23 15 10 6 7 11 20 27 35 38 35 19 16 14 16 20 21 20 20 20 18 17 17 18 18 19 21 22 23 21 20 18 13 6 8 9 9 10 12 6
79 75 59 22 26 22 16 12 7 6 9 12 20 27 33 40 40 29 26 17 15 18 17 18 20 21 21 21 19 17 18 20 24 26 21 35 15 17 20 20 21 20 18 18
76 82 76 52 23 26 23 18 14 8 7 8 12 16 21 25 30 42 44 41 36 37 40 42 44 42 40 39 41 41 39 37 39 36 39 27 28 29 30 32 30 32 34 34
82 75 76 68 38 24 28 25 19 18 11 10 10 13 17 22 22 20 29 41 44 44 45 46 45 39 38 38 40 40 41 45 55 51 49 50 33 32 34 34 33 38 40 42
88 78 71 70 62 34 28 32 28 23 21 16 10 8 10 13 20 20 25 30 34 42 46 47 46 43 40 40 42 41 42 47 55 69 68 43 36 39 40 39 38 44 46 49
88 86 75 66 63 46 31 33 34 31 28 24 21 15 10 12 15 18 25 28 25 35 44 47 43 46 44 43 41 41 43 45 48 68 84 55 38 38 43 45 46 48 52 57
89 92 86 83 72 59 37 31 37 38 34 30 27 22 16 12 14 16 18 25 29 37 43 48 50 48 50 48 47 41 45 41 42 43 36 36 40 46 49 50 51 55 59 61
86 90 84 87 94 89 69 39 36 39 41 39 36 33 30 26 21 17 19 20 30 36 47 57 62 62 59 59 55 53 48 49 51 50 34 44 48 50 53 56 52 53 57 64
99 82 82 95 87 92 88 84 57 49 48 49 46 41 38 34 28 22 21 19 21 29 35 54 60 59 62 65 60 58 48 50 47 50 42 51 48 49 48 49 52 54 59 67
99 94 97 89 90 90 86 88 86 52 53 52 48 46 42 36 33 31 28 24 22 24 38 49 58 64 63 70 72 65 37 40 49 54 50 54 51 48 53 53 52 57 60 65
98 98 98 87 81 88 94 87 85 84 58 62 58 58 55 52 48 45 41 38 34 31 35 55 63 57 67 79 72 48 37 46 51 51 48 45 50 58 66 66 62 66 74 79
98 99 98 96 86 77 86 95 83 76 73 69 71 65 59 55 53 53 51 48 40 34 40 44 48 53 70 76 61 36 50 46 44 48 55 59 67 69 65 64 67 83 90 94
87 97 99 98 99 100 99 100 95 83 76 74 76 71 70 66 62 56 50 46 49 48 52 55 55 61 62 64 43 50 56 59 62 67 71 73 73 71 74 84 91 94 96 96
48 100 99 98 94 100 98 98 97 95 92 89 74 75 82 71 68 68 66 64 62 63 65 64 65 65 60 48 53 55 57 60 59 64 70 78 86 82 76 78 80 86 92 94
75 98 100 98 99 100 100 99 97 98 95 94 81 86 82 70 71 69 72 76 77 72 68 68 69 52 42 48 53 49 52 58 57 59 59 59 56 54 63 80 83 89 95 98
21 88 97 98 97 97 98 98 98 96 81 82 79 71 69 81 89 91 90 93 82 81 75 76 71 44 42 48 48 50 53 52 56 64 63 55 51 52 63 82 89 92 92 95
12 18 75 97 97 97 96 97 95 78 91 89 55 55 64 89 92 100 97 96 92 86 94 90 66 45 48 51 52 48 52 53 54 56 54 54 53 63 79 90 95 96 94 90
31 31 59 99 97 97 97 89 80 75 68 54 49 59 64 83 99 100 95 95 98 95 92 73 54 50 50 54 53 50 52 54 51 48 47 50 61 74 82 86 83 72 58 52
95 100 95 89 95 86 66 63 53 55 56 61 61 61 62 73 86 100 94 97 96 95 87 56 46 50 52 56 52 53 55 55 56 57 61 65 68 65 62 59 55 49 44 39
100 98 92 72 57 61 68 66 61 65 66 62 62 67 70 74 98 94 92 91 86 78 53 49 50 50 53 56 57 57 59 58 54 52 52 54 57 59 59 51 44 41 34 21
97 88 76 57 65 69 73 77 73 73 71 71 69 81 92 91 84 82 78 85 67 56 53 52 56 60 62 63 64 64 65 62 65 74 76 73 67 57 51 48 36 20 17 16
97 88 69 58 57 62 70 70 75 71 76 77 90 90 82 89 89 81 75 62 56 60 59 63 67 69 70 73 73 74 80 88 85 71 63 61 52 32 21 17 17 18 22 25

GFSNW_700_rhum_153.txt.gz
RH
23 20 10 7 5 11 25 16 20 27 28 27 26 28 33 38 40 41 36 34 27 30 30 33 32 30 28 26 24 22 19 18 25 25 24 22 23 24 22 18 22 28 32 16
14 22 20 10 6 5 14 23 16 22 26 29 30 33 35 34 37 36 38 36 34 34 32 31 30 29 27 28 26 21 19 18 18 21 21 18 18 17 18 22 24 24 29 12
14 12 19 19 11 6 7 19 25 20 20 28 31 32 33 34 32 34 34 34 34 34 34 29 28 28 24 22 22 22 19 17 16 16 20 22 22 20 21 22 27 20 15 11
62 53 15 18 19 12 6 9 18 26 26 17 20 19 20 18 22 28 30 33 32 30 28 28 30 27 28 27 25 24 23 22 21 22 22 21 21 20 21 22 20 25 18 18
69 70 67 40 18 18 12 6 10 17 23 33 31 22 20 21 18 20 16 23 28 27 29 25 18 20 19 19 17 20 22 23 21 17 16 16 13 13 14 15 17 17 14 10
72 68 73 66 33 20 18 12 7 8 12 19 26 31 35 26 18 16 16 20 21 20 20 19 18 18 16 15 15 14 16 16 16 15 14 14 14 6 8 10 12 16 18 22
79 76 79 77 61 27 24 20 15 8 8 8 15 21 26 31 39 36 33 23 16 19 19 21 26 29 28 27 24 22 20 19 22 24 30 33 20 22 27 29 30 32 30 33
82 81 79 82 73 54 28 26 22 17 11 7 8 11 16 22 24 32 40 42 37 36 37 39 41 40 36 36 37 40 41 40 39 42 33 31 29 30 30 34 31 33 37 41
92 79 82 77 75 67 40 26 27 25 20 15 12 10 13 15 19 19 20 28 39 42 42 41 40 33 34 34 36 37 38 42 47 48 43 45 32 33 37 37 34 39 44 46
98 89 87 83 73 69 64 41 29 28 28 23 19 14 11 11 14 15 16 19 24 29 38 45 45 41 38 37 38 38 38 41 46 55 54 36 34 40 41 40 39 43 44 45
95 94 87 86 80 71 65 54 45 35 30 29 27 24 21 16 15 16 21 21 20 23 31 40 44 45 43 42 41 40 42 44 44 58 68 49 36 40 44 47 49 50 51 52
95 99 87 95 90 80 76 66 48 39 36 33 30 27 25 21 16 16 16 23 28 29 30 42 48 47 47 46 46 39 43 41 43 44 35 37 41 46 50 54 52 46 46 49
94 91 79 84 93 85 83 86 80 55 42 39 38 38 37 34 31 28 25 23 24 28 37 43 51 52 50 49 43 45 38 41 53 50 33 41 48 50 54 52 53 51 50 50
90 78 98 83 80 76 88 90 92 87 76 64 56 51 48 43 36 32 28 24 22 23 27 38 44 43 42 47 50 53 31 37 41 41 35 50 46 50 52 52 48 49 54 60
81 98 98 99 78 76 93 90 90 85 87 69 57 54 49 43 41 38 35 33 32 29 29 35 43 46 47 52 66 52 26 27 43 44 45 48 45 50 50 50 55 59 64 70
99 84 98 82 81 90 90 78 89 83 84 90 82 69 63 60 56 54 52 49 48 46 44 43 44 41 52 69 59 29 31 35 42 49 52 49 47 51 57 63 70 66 63 69
73 89 98 99 98 95 92 96 85 80 88 85 79 74 67 62 59 57 55 56 56 54 50 48 46 44 57 58 43 39 46 48 50 52 54 54 60 65 70 76 74 74 80 90
19 85 86 98 100 100 99 99 99 84 95 93 87 80 73 64 55 56 57 59 56 52 55 52 50 55 56 50 40 49 50 49 51 56 58 60 60 64 74 83 80 78 75 82
4 23 58 98 99 98 98 98 98 94 100 97 88 80 77 70 61 63 67 67 66 65 63 62 65 64 58 43 49 47 48 50 50 51 54 56 58 63 66 64 62 61 71 79
6 11 46 53 98 100 97 98 98 99 100 95 81 83 89 75 67 68 71 69 68 70 68 72 68 44 38 42 44 43 44 45 44 48 52 57 62 63 60 50 49 53 68 88
17 16 27 60 99 98 97 97 96 93 78 80 79 80 75 84 84 86 82 85 82 79 74 76 65 41 36 39 40 44 48 44 43 48 51 56 58 56 54 51 48 61 76 87
26 26 24 79 98 98 97 97 92 77 80 84 68 53 63 89 92 100 96 95 88 80 88 87 63 43 38 39 43 44 48 45 44 46 50 50 51 50 48 49 60 75 88 94
48 62 44 54 89 99 95 74 90 87 74 56 42 62 70 79 99 100 95 92 94 94 88 73 45 42 40 43 44 47 51 50 46 48 50 50 49 50 55 65 74 75 66 57
90 98 92 68 84 60 70 60 57 55 49 48 61 66 75 88 96 97 95 97 96 93 81 47 38 43 45 42 47 50 55 55 53 52 54 55 57 57 56 54 57 57 56 53
97 95 94 74 21 31 40 41 65 74 73 67 71 77 80 89 96 95 95 95 86 69 47 42 41 43 47 49 55 59 61 62 60 59 57 53 49 52 63 69 70 66 60 49
98 93 72 34 41 22 26 56 54 58 67 87 87 93 96 95 95 93 85 83 58 49 49 48 49 51 55 59 63 66 69 69 68 65 65 69 80 82 76 64 48 26 17 16
89 88 69 45 36 44 27 33 58 68 93 92 95 96 94 96 96 88 76 58 47 55 53 56 58 61 67 69 72 73 74 79 83 88 90 80 70 53 25 15 15 16 18 20

GFSNW_700_rhum_156.txt.gz
RH
9 12 21 11 7 7 21 16 21 27 26 25 25 30 34 37 36 33 34 30 30 32 33 34 30 29 29 27 24 21 19 23 28 24 22 23 22 21 21 22 30 20 27 20
17 10 12 20 11 5 12 20 16 22 26 28 29 32 34 36 36 33 31 31 32 33 32 33 31 29 26 26 23 20 20 18 27 26 24 22 22 22 22 22 22 26 22 14
55 47 29 14 19 11 6 14 23 20 17 26 30 32 34 31 34 35 35 33 32 31 28 25 28 26 24 22 23 21 17 16 14 19 19 18 19 16 16 18 22 24 18 15
70 68 62 59 23 18 11 7 12 21 27 19 19 16 17 18 22 27 32 32 31 30 30 28 27 24 22 21 21 21 20 19 18 18 18 18 19 19 19 20 20 25 21 19
72 73 69 63 59 26 17 10 7 10 18 30 34 27 19 20 15 17 18 28 28 30 28 25 21 26 25 21 20 21 23 22 20 17 14 13 10 8 8 10 13 10 9 9
77 77 76 70 68 57 20 17 11 7 8 14 21 28 33 27 20 17 17 19 18 17 17 17 17 16 16 16 16 14 14 15 15 15 15 17 27 17 12 11 14 20 26 32
83 84 76 79 77 67 39 21 19 13 9 7 11 15 20 26 37 37 36 26 19 22 23 27 31 34 34 33 30 26 23 23 26 26 33 40 24 16 25 29 33 33 34 37
84 86 77 82 72 77 58 36 24 21 16 11 9 8 12 16 20 24 28 36 37 36 35 36 36 36 34 34 33 35 38 39 38 40 38 29 28 29 31 34 32 34 42 45
97 92 83 80 80 69 71 59 34 26 23 19 14 11 10 10 14 16 17 18 26 31 34 36 35 32 31 33 33 33 35 37 40 42 43 34 31 32 35 36 38 39 41 41
99 98 91 84 86 81 68 64 61 45 29 26 23 20 15 13 11 12 13 15 17 22 27 32 36 36 34 33 35 36 36 36 40 44 46 32 31 36 40 40 40 42 46 47
100 98 96 87 83 83 79 71 60 55 45 36 29 26 25 22 20 17 19 19 20 20 24 28 30 38 35 35 35 35 35 37 40 46 57 51 34 38 40 45 45 44 46 48
100 99 98 96 84 83 85 79 74 65 53 44 38 31 27 24 22 20 18 20 20 22 24 31 34 37 39 37 36 32 30 26 32 34 30 36 41 45 48 50 49 48 52 54
82 56 85 98 90 86 88 83 80 76 74 58 50 43 39 37 36 34 32 29 26 25 27 32 38 38 34 38 36 34 26 30 42 42 27 31 43 46 54 56 53 57 57 53
36 48 99 97 80 64 80 86 79 81 84 78 68 62 53 46 42 37 31 28 28 27 28 31 36 39 38 41 38 33 27 29 33 34 27 35 40 48 50 53 55 53 52 53
83 67 99 92 73 82 86 77 72 86 84 81 68 61 55 52 51 53 53 48 41 39 38 37 40 36 37 42 48 41 37 37 36 36 38 40 36 41 49 52 52 53 54 57
25 35 97 99 100 100 98 72 84 88 89 85 76 69 67 70 66 61 58 53 53 54 55 52 51 48 52 58 49 41 42 41 44 48 46 44 46 50 52 53 56 58 65 74
5 15 23 74 99 98 96 96 85 91 85 81 81 72 59 62 62 66 65 62 58 58 58 57 55 54 60 56 45 35 42 48 50 48 49 49 52 54 54 52 55 64 76 71
3 6 66 100 98 98 99 99 95 87 85 84 96 83 63 56 55 53 54 57 59 58 59 58 55 56 57 51 31 44 45 42 42 45 48 47 43 48 53 58 61 61 59 58
7 6 25 93 98 98 98 98 98 96 95 100 98 87 82 73 64 60 61 64 68 64 62 59 62 59 53 30 40 42 38 40 42 43 42 37 37 47 54 58 59 57 52 51
10 11 9 28 76 99 95 97 98 98 98 100 100 97 92 76 70 64 69 71 69 67 61 61 58 38 29 34 38 34 37 40 42 44 39 38 41 49 54 53 53 50 49 53
16 16 17 14 62 81 98 98 98 95 84 94 100 95 79 79 88 76 74 76 75 74 67 71 62 34 29 34 29 30 36 38 42 40 35 35 41 48 52 54 53 49 49 58
31 30 26 27 95 99 90 75 69 64 91 95 97 64 53 82 98 94 88 88 88 78 82 88 66 31 34 32 35 37 38 39 45 44 38 36 39 45 49 50 51 52 65 75
65 57 96 55 70 98 95 73 66 87 89 86 62 54 70 87 100 100 96 95 96 91 85 71 39 44 40 36 40 42 40 41 46 48 48 46 46 50 54 58 63 68 63 60
95 82 75 55 49 47 65 63 60 56 56 60 60 76 77 81 99 99 96 98 98 94 82 42 38 42 42 34 40 43 45 48 51 53 55 54 53 55 58 59 57 60 73 75
96 89 94 65 15 15 16 42 64 67 68 68 75 86 86 84 99 96 96 95 94 76 48 38 43 40 41 42 45 51 55 55 58 61 62 61 62 61 59 64 81 85 75 56
94 96 67 35 40 26 18 19 29 40 44 76 98 98 97 96 97 91 86 89 68 54 46 47 48 48 51 53 54 61 64 65 68 68 70 70 72 77 86 86 69 38 15 12
100 79 58 55 50 53 34 35 42 84 99 99 100 94 90 84 95 94 88 68 52 58 56 53 58 58 63 63 65 70 73 74 75 77 77 80 86 81 58 21 13 13 14 17